Satellite-Ground Cal/Val Region Overpasses Predictions

Prediction of Satellite NPP Overpassing Cal/Val Region: PacNW

Region Location: (Latitude: 10.00, Longitude: 139.50) to (Latitude: 22.70, Longitude: 165.60).

Table of predicted overpasses for the next 14.0 days since TLE Epoch: 6/8/2018
Interval Starting Time Starting Location Ending Time Ending Location
1 06/09/2018 03:36:18 ( 10.03, 145.65) 06/09/2018 03:39:53 ( 22.65, 142.64)
2 06/09/2018 14:29:50 ( 11.54, 165.60) 06/09/2018 14:30:16 ( 10.01, 165.25)
3 06/09/2018 16:08:10 ( 22.69, 142.89) 06/09/2018 16:11:46 ( 10.01, 139.87)
4 06/10/2018 03:17:15 ( 10.00, 150.41) 06/10/2018 03:20:51 ( 22.68, 147.39)
5 06/10/2018 15:49:09 ( 22.66, 147.64) 06/10/2018 15:52:44 ( 10.04, 144.64)
6 06/11/2018 02:58:14 ( 10.03, 155.16) 06/11/2018 03:01:49 ( 22.65, 152.16)
7 06/11/2018 15:30:06 ( 22.69, 152.41) 06/11/2018 15:33:42 ( 10.01, 149.39)
8 06/12/2018 02:39:11 ( 10.00, 159.93) 06/12/2018 02:42:47 ( 22.68, 156.91)
9 06/12/2018 15:11:05 ( 22.66, 157.16) 06/12/2018 15:14:40 ( 10.04, 154.16)
10 06/13/2018 02:20:10 ( 10.03, 164.68) 06/13/2018 02:23:45 ( 22.65, 161.68)
11 06/13/2018 14:52:02 ( 22.69, 161.93) 06/13/2018 14:55:38 ( 10.01, 158.91)
12 06/14/2018 03:42:37 ( 10.01, 144.07) 06/14/2018 03:46:13 ( 22.69, 141.05)
13 06/14/2018 14:34:16 ( 18.26, 165.60) 06/14/2018 14:36:36 ( 10.04, 163.67)
14 06/14/2018 16:14:31 ( 22.65, 141.30) 06/14/2018 16:16:37 ( 15.26, 139.51)
15 06/15/2018 03:23:36 ( 10.04, 148.82) 06/15/2018 03:27:11 ( 22.66, 145.82)
16 06/15/2018 15:55:28 ( 22.68, 146.07) 06/15/2018 15:59:03 ( 10.06, 143.06)
17 06/16/2018 03:04:33 ( 10.01, 153.59) 06/16/2018 03:08:09 ( 22.69, 150.57)
18 06/16/2018 15:36:27 ( 22.65, 150.82) 06/16/2018 15:40:02 ( 10.03, 147.82)
19 06/17/2018 02:45:32 ( 10.04, 158.34) 06/17/2018 02:49:07 ( 22.66, 155.34)
20 06/17/2018 15:17:25 ( 22.68, 155.59) 06/17/2018 15:21:00 ( 10.06, 152.58)
21 06/18/2018 02:26:29 ( 10.01, 163.11) 06/18/2018 02:30:05 ( 22.69, 160.09)
22 06/18/2018 14:58:23 ( 22.65, 160.34) 06/18/2018 15:01:58 ( 10.02, 157.33)
23 06/19/2018 02:10:12 ( 19.67, 165.59) 06/19/2018 02:11:03 ( 22.66, 164.86)
24 06/19/2018 03:48:58 ( 10.05, 142.48) 06/19/2018 03:52:31 ( 22.55, 139.51)
25 06/19/2018 14:39:21 ( 22.67, 165.10) 06/19/2018 14:42:56 ( 10.05, 162.10)
26 06/19/2018 16:20:51 ( 22.67, 139.73) 06/19/2018 16:21:06 ( 21.79, 139.51)
27 06/20/2018 03:29:55 ( 10.02, 147.25) 06/20/2018 03:33:30 ( 22.64, 144.24)
28 06/20/2018 16:01:48 ( 22.69, 144.49) 06/20/2018 16:05:24 ( 10.01, 141.47)
29 06/21/2018 03:10:54 ( 10.05, 152.00) 06/21/2018 03:14:29 ( 22.68, 149.00)
30 06/21/2018 15:42:47 ( 22.66, 149.24) 06/21/2018 15:46:22 ( 10.04, 146.24)
31 06/22/2018 02:51:51 ( 10.03, 156.77) 06/22/2018 02:55:26 ( 22.65, 153.76)


NCC Satellite Cal/Val Overpasses Prediction Service
